Weather History for Raton, NM

Change the Weather History Date:

Wednesday, February 20, 2013

  Actual Average (KTAD) Record (KTAD)
Temperature  
Mean Temperature 34 °F 36 °F  
Max Temperature 42 °F 51 °F 77 °F (1981)
Min Temperature 26 °F 21 °F -14 °F (1955)
Degree Days  
Heating Degree Days 31 29  
Month to date heating degree days 618  
Since 1 July heating degree days 3900  
Cooling Degree Days 0 0  
Month to date cooling degree days 0  
Year to date cooling degree days 0  
Moisture  
Dew Point 29 °F    
Average Humidity 90    
Maximum Humidity 100    
Minimum Humidity 64    
Precipitation  
Precipitation 0.10 in 0.01 in 0.56 in (1990)
Month to date precipitation 0.32  
Year to date precipitation 0.72  
Sea Level Pressure  
Sea Level Pressure 29.61 in    
Wind  
Wind Speed 9 mph (SSW)    
Max Wind Speed 31 mph    
Max Gust Speed 39 mph    
Visibility 6 miles    
Events Fog , Snow    
T = Trace of Precipitation, MM = Missing Value Source: NWS Daily Summary

Daily Weather History Graph

Daily Weather History Graph

Search for Another Location

Airport:

Trip Planner

Search our weather history database for the weather conditions in past years. The results will help you decide how hot, cold, wet, or windy it might be!

Date:

Astronomy

Feb. 20, 2013 Rise Set
Actual Time 6:39 AM MST 5:43 PM MST
Civil Twilight 6:13 AM MST 6:10 PM MST
Nautical Twilight 5:43 AM MST 6:40 PM MST
Astronomical Twilight 5:13 AM MST 7:10 PM MST
Moon 1:11 PM MST (2/20) 2:57 AM MST (2/20)
Length of Visible Light 11h 56m
Length of Day
11h 03m
Waxing Gibbous, 76% of the Moon is Illuminated
Feb 20
Waxing Gibbous
Feb 25
Full
Mar 4
Last Quarter
Mar 11
New
Mar 19
First Quarter

Hourly Weather History & Observations

Time (MST) Temp. Windchill Dew Point Humidity Pressure Visibility Wind Dir Wind Speed Gust Speed Precip Events Conditions
12:53 AM 28.9 °F 21.9 °F 18.0 °F 64% 29.74 in 10.0 mi WSW 6.9 mph - N/A   Mostly Cloudy
1:27 AM 28.4 °F 19.1 °F 21.2 °F 74% 29.79 in 2.5 mi WSW 10.4 mph - 0.00 in Snow Light Snow
1:31 AM 28.4 °F 18.5 °F 23.0 °F 80% 29.79 in 0.8 mi WSW 11.5 mph - 0.00 in Snow Light Snow
1:40 AM 26.6 °F 16.8 °F 24.8 °F 93% 29.79 in 0.5 mi WSW 10.4 mph - 0.01 in Fog , Snow Snow
1:53 AM 26.1 °F 18.4 °F 25.0 °F 96% 29.74 in 0.8 mi West 6.9 mph - 0.02 in Snow Light Snow
2:05 AM 26.6 °F 18.2 °F 24.8 °F 93% 29.77 in 1.2 mi West 8.1 mph - 0.01 in Snow Light Snow
2:18 AM 26.6 °F 18.2 °F 24.8 °F 93% 29.77 in 2.5 mi West 8.1 mph - 0.01 in Snow Light Snow
2:23 AM 26.6 °F 18.2 °F 24.8 °F 93% 29.77 in 3.0 mi WNW 8.1 mph - 0.01 in Snow Light Snow
2:53 AM 28.0 °F 24.2 °F 25.0 °F 88% 29.71 in 10.0 mi West 3.5 mph - 0.01 in   Overcast
3:53 AM 28.0 °F - 26.1 °F 92% 29.70 in 10.0 mi Calm Calm - N/A   Overcast
4:53 AM 28.9 °F - 26.1 °F 89% 29.69 in 10.0 mi Calm Calm - N/A   Overcast
5:53 AM 28.0 °F 24.2 °F 26.1 °F 92% 29.72 in 1.5 mi SSW 3.5 mph - 0.00 in Snow Light Snow
6:21 AM 28.4 °F - 26.6 °F 93% 29.73 in 3.0 mi Calm Calm - 0.01 in Snow Light Snow
6:30 AM 28.4 °F - 26.6 °F 93% 29.72 in 8.0 mi Calm Calm - 0.01 in Snow Light Snow
6:53 AM 28.0 °F - 26.1 °F 92% 29.71 in 4.0 mi Calm Calm - 0.01 in Snow Light Snow
7:53 AM 28.9 °F 25.2 °F 27.0 °F 92% 29.71 in 10.0 mi ENE 3.5 mph - 0.00 in   Overcast
8:17 AM 28.4 °F 24.6 °F 26.6 °F 93% 29.72 in 10.0 mi ENE 3.5 mph - N/A   Overcast
8:27 AM 28.4 °F - 26.6 °F 93% 29.72 in 10.0 mi Calm Calm - N/A   Overcast
8:46 AM 30.2 °F 26.7 °F 26.6 °F 86% 29.71 in 10.0 mi NE 3.5 mph - N/A   Overcast
8:53 AM 30.0 °F 25.2 °F 27.0 °F 88% 29.72 in 10.0 mi ENE 4.6 mph - N/A   Overcast
9:04 AM 30.2 °F 26.7 °F 26.6 °F 86% 29.70 in 10.0 mi NNE 3.5 mph - N/A   Overcast
9:53 AM 30.9 °F 26.2 °F 28.0 °F 89% 29.70 in 7.0 mi North 4.6 mph - 0.00 in Snow Light Snow
10:25 AM 32.0 °F - 28.4 °F 87% 29.68 in 2.5 mi Calm Calm - 0.01 in Snow Light Snow
10:36 AM 32.0 °F 28.7 °F 28.4 °F 87% 29.67 in 1.5 mi WNW 3.5 mph - 0.01 in Snow Light Snow
10:53 AM 32.0 °F - 28.9 °F 88% 29.68 in 1.0 mi Calm Calm - 0.02 in Snow Light Snow
10:59 AM 32.0 °F - 28.4 °F 87% 29.66 in 4.0 mi Calm Calm - 0.00 in Snow Light Snow
11:53 AM 33.1 °F - 30.9 °F 92% 29.63 in 9.0 mi Calm Calm - 0.00 in Snow Light Snow
12:18 PM 37.4 °F 30.3 °F 35.6 °F 93% 29.59 in 10.0 mi West 10.4 mph - 0.00 in   Overcast
12:45 PM 42.8 °F 32.3 °F 33.8 °F 70% 29.56 in 10.0 mi South 29.9 mph 36.8 mph 0.00 in   Mostly Cloudy
12:53 PM 41.0 °F 30.5 °F 34.0 °F 76% 29.52 in 10.0 mi SSE 26.5 mph 36.8 mph 0.00 in   Mostly Cloudy
1:17 PM 42.8 °F 32.1 °F 33.8 °F 70% 29.54 in 10.0 mi SSE 31.1 mph 38.0 mph N/A   Mostly Cloudy
1:53 PM 37.9 °F 25.7 °F 32.0 °F 79% 29.53 in 10.0 mi SSE 29.9 mph 38.0 mph N/A   Overcast
2:18 PM 35.6 °F 24.0 °F 30.2 °F 81% 29.53 in 2.0 mi South 23.0 mph 36.8 mph 0.00 in Snow Light Snow
2:25 PM 35.6 °F 24.5 °F 30.2 °F 81% 29.53 in 1.0 mi South 20.7 mph 27.6 mph 0.00 in Snow Light Snow
2:37 PM 33.8 °F 20.8 °F 32.0 °F 93% 29.53 in 0.8 mi South 26.5 mph 39.1 mph 0.01 in Snow Light Snow
2:40 PM 32.0 °F 18.9 °F 30.2 °F 93% 29.54 in 0.2 mi SSW 24.2 mph 39.1 mph 0.01 in Fog , Snow Snow
2:50 PM 32.0 °F 20.5 °F 32.0 °F 100% 29.53 in 1.5 mi SSW 18.4 mph - 0.02 in   Overcast
2:53 PM 32.0 °F 19.5 °F 30.9 °F 96% 29.54 in 2.0 mi SSW 21.9 mph 27.6 mph 0.02 in Snow Light Snow
2:57 PM 32.0 °F 19.2 °F 30.2 °F 93% 29.54 in 0.8 mi SSW 23.0 mph 27.6 mph 0.00 in Snow Light Snow
3:05 PM 32.0 °F 19.2 °F 32.0 °F 100% 29.53 in 0.5 mi SSW 23.0 mph 29.9 mph 0.01 in Fog , Snow Light Snow
3:19 PM 32.0 °F 22.5 °F 30.2 °F 93% 29.53 in 3.0 mi South 12.7 mph - 0.02 in Snow Light Snow
3:27 PM 32.0 °F 23.6 °F 30.2 °F 93% 29.52 in 7.0 mi SSE 10.4 mph - 0.02 in   Overcast
3:30 PM 32.0 °F 24.2 °F 30.2 °F 93% 29.52 in 1.2 mi SSE 9.2 mph - 0.02 in   Overcast
3:40 PM 33.8 °F 26.4 °F 32.0 °F 93% 29.52 in 2.0 mi South 9.2 mph - 0.02 in   Mostly Cloudy
3:53 PM 34.0 °F 26.0 °F 32.0 °F 92% 29.52 in 10.0 mi SSW 10.4 mph - 0.02 in   Overcast
4:43 PM 33.8 °F 23.9 °F 32.0 °F 93% 29.51 in 10.0 mi South 15.0 mph - N/A   Overcast
4:53 PM 34.0 °F 25.0 °F 32.0 °F 92% 29.50 in 10.0 mi South 12.7 mph - N/A   Overcast
5:22 PM 33.8 °F 23.9 °F 32.0 °F 93% 29.52 in 10.0 mi South 15.0 mph 21.9 mph N/A   Overcast
5:53 PM 34.0 °F 26.0 °F 30.9 °F 89% 29.52 in 10.0 mi SSE 10.4 mph - N/A   Overcast
6:53 PM 33.1 °F 24.4 °F 30.9 °F 92% 29.56 in 10.0 mi SSW 11.5 mph - N/A   Overcast
7:09 PM 33.8 °F 27.0 °F 30.2 °F 87% 29.57 in 7.0 mi SSW 8.1 mph - 0.00 in Snow Light Snow
7:53 PM 32.0 °F 22.5 °F 30.0 °F 92% 29.55 in 10.0 mi South 12.7 mph - 0.00 in   Mostly Cloudy
8:05 PM 32.0 °F 23.6 °F 30.2 °F 93% 29.55 in 10.0 mi South 10.4 mph - N/A   Scattered Clouds
8:21 PM 32.0 °F 23.0 °F 30.2 °F 93% 29.56 in 10.0 mi South 11.5 mph - N/A   Scattered Clouds
8:31 PM 32.0 °F 21.6 °F 30.2 °F 93% 29.56 in 10.0 mi South 15.0 mph - N/A   Mostly Cloudy
8:53 PM 30.9 °F 20.7 °F 28.9 °F 92% 29.56 in 10.0 mi South 13.8 mph - N/A   Mostly Cloudy
9:02 PM 30.2 °F 20.2 °F 28.4 °F 93% 29.57 in 10.0 mi South 12.7 mph - N/A   Mostly Cloudy
9:33 PM 30.2 °F 21.9 °F 28.4 °F 93% 29.57 in 10.0 mi SW 9.2 mph - N/A   Overcast
9:45 PM 30.2 °F 20.8 °F 28.4 °F 93% 29.57 in 1.8 mi SW 11.5 mph - N/A   Overcast
9:53 PM 30.0 °F 21.1 °F 28.9 °F 96% 29.57 in 0.8 mi SW 10.4 mph - N/A   Overcast
10:22 PM 30.2 °F 24.3 °F 30.2 °F 100% 29.58 in 2.0 mi SSW 5.8 mph - N/A   Overcast
10:30 PM 30.2 °F 26.7 °F 30.2 °F 100% 29.58 in 8.0 mi WSW 3.5 mph - N/A   Overcast
10:38 PM 30.2 °F 24.3 °F 28.4 °F 93% 29.57 in 10.0 mi WSW 5.8 mph - N/A   Overcast
10:53 PM 30.0 °F 24.1 °F 28.9 °F 96% 29.57 in 9.0 mi WSW 5.8 mph - N/A   Overcast
11:33 PM 30.2 °F 23.4 °F 28.4 °F 93% 29.56 in 10.0 mi South 6.9 mph - N/A   Overcast
11:36 PM 30.2 °F 22.6 °F 28.4 °F 93% 29.56 in 10.0 mi South 8.1 mph - N/A   Mostly Cloudy
11:46 PM 30.2 °F 23.4 °F 28.4 °F 93% 29.55 in 10.0 mi South 6.9 mph - N/A   Overcast
11:53 PM 30.9 °F 25.2 °F 28.9 °F 92% 29.54 in 10.0 mi South 5.8 mph - N/A   Overcast